This is the latest recevied weather packets stored in our database for station/object DM4WH-13. If no packets are shown the sender has not sent any weather packets the latest 10 day(s).
| Time | Temp. | Humidity | Pressure | Rain* | Wind** | Luminosity | Snow |
|---|---|---|---|---|---|---|---|
| 1777460420 | 11.11° C | 30% | 1030 hPa | 0 mm | 0.89 m/s, 5° | - | - |
| 1777460108 | 11.11° C | 29% | 1030.1 hPa | 0 mm | 0.89 m/s, 18° | - | - |
| 1777459820 | 11.11° C | 30% | 1030 hPa | 0 mm | 1.34 m/s, 28° | - | - |
| 1777459507 | 11.11° C | 28% | 1030 hPa | 0 mm | 0.89 m/s, 19° | - | - |
| 1777459220 | 11.11° C | 32% | 1030 hPa | 0 mm | 0.45 m/s, 306° | - | - |
| 1777458908 | 11.11° C | 31% | 1030 hPa | 0 mm | 1.34 m/s, 276° | - | - |
| 1777458633 | 11.11° C | 31% | 1030.1 hPa | 0 mm | 0.89 m/s, 294° | - | - |
| 1777458320 | 12.22° C | 31% | 1030.1 hPa | 0 mm | 0.89 m/s, 8° | - | - |
| 1777458007 | 11.11° C | 31% | 1030.2 hPa | 0 mm | 0.45 m/s, 23° | - | - |
| 1777457720 | 11.11° C | 30% | 1030.2 hPa | 0 mm | 0.45 m/s, 37° | - | - |
| 1777457408 | 11.11° C | 33% | 1030.2 hPa | 0 mm | 1.34 m/s, 300° | - | - |
| 1777457120 | 11.11° C | 32% | 1030.2 hPa | 0 mm | 0.89 m/s, 85° | - | - |
| 1777456808 | 11.11° C | 32% | 1030.3 hPa | 0 mm | 0.89 m/s, 3° | - | - |
| 1777456520 | 11.11° C | 35% | 1030.3 hPa | 0 mm | 0.45 m/s, 280° | - | - |
| 1777456207 | 11.11° C | 31% | 1030.3 hPa | 0 mm | 0.45 m/s, 31° | - | - |
| 1777455920 | 10° C | 31% | 1030.4 hPa | 0 mm | 0.89 m/s, 282° | - | - |
| 1777455607 | 11.11° C | 32% | 1030.5 hPa | 0 mm | 0.89 m/s, 30° | - | - |
| 1777455319 | 10° C | 33% | 1030.5 hPa | 0 mm | 0.89 m/s, 31° | - | - |
| 1777455007 | 10° C | 31% | 1030.5 hPa | 0 mm | 0.45 m/s, 30° | - | - |
| 1777454720 | 10° C | 33% | 1030.5 hPa | 0 mm | 0.45 m/s, 349° | - | - |
| 1777454407 | 10° C | 32% | 1030.5 hPa | 0 mm | 0.89 m/s, 344° | - | - |
| 1777454119 | 10° C | 35% | 1030.6 hPa | 0 mm | 0.89 m/s, 42° | - | - |
| 1777453807 | 10° C | 35% | 1030.5 hPa | 0 mm | 0.89 m/s, 24° | - | - |
| 1777453520 | 10° C | 35% | 1030.6 hPa | 0 mm | 0.45 m/s, 25° | - | - |
| 1777453207 | 10° C | 37% | 1030.6 hPa | 0 mm | 0.89 m/s, 12° | - | - |
* Rain latest hour (hover to see other rain measurements)
** Current wind speed in m/s (hover to see current wind gust speed)